TimeCET,TemperatureF,Dew PointF,Humidity,Sea Level PressureIn,VisibilityMPH,Wind Direction,Wind SpeedMPH,Gust SpeedMPH,PrecipitationIn,Events,Conditions,WindDirDegrees,DateUTC
12:25 AM,30.2,19.4,64,29.50,6.2,East,13.8,-,N/A,,Mostly Cloudy,90,2013-02-10 23:25:00
12:55 AM,30.2,21.2,69,29.50,6.2,East,13.8,-,N/A,,Partly Cloudy,90,2013-02-10 23:55:00
1:25 AM,30.2,21.2,69,29.50,6.2,East,13.8,-,N/A,,Scattered Clouds,90,2013-02-11 00:25:00
1:55 AM,30.2,21.2,69,29.50,6.2,East,13.8,-,N/A,,Mostly Cloudy,90,2013-02-11 00:55:00
2:25 AM,30.2,21.2,69,29.47,6.2,East,13.8,-,N/A,,Mostly Cloudy,90,2013-02-11 01:25:00
2:55 AM,30.2,19.4,64,29.47,6.2,East,15.0,-,N/A,,Partly Cloudy,100,2013-02-11 01:55:00
3:25 AM,28.4,19.4,69,29.47,6.2,East,15.0,-,N/A,,Overcast,90,2013-02-11 02:25:00
3:55 AM,28.4,19.4,69,29.47,6.2,East,13.8,-,N/A,,Overcast,90,2013-02-11 02:55:00
4:25 AM,28.4,19.4,69,29.44,6.2,East,15.0,-,N/A,,Overcast,90,2013-02-11 03:25:00
4:41 AM,28.4,19.4,69,29.44,6.2,East,13.8,-,N/A,,Mostly Cloudy,90,2013-02-11 03:41:00
4:42 AM,28.4,19.4,69,29.44,6.2,East,13.8,-,N/A,,Mostly Cloudy,90,2013-02-11 03:42:00
4:55 AM,28.4,19.4,69,29.44,6.2,East,13.8,-,N/A,,Overcast,90,2013-02-11 03:55:00
5:25 AM,28.4,19.4,69,29.44,6.2,East,13.8,-,N/A,,Overcast,90,2013-02-11 04:25:00
5:55 AM,28.4,19.4,69,29.44,6.2,East,15.0,-,N/A,,Overcast,90,2013-02-11 04:55:00
6:25 AM,28.4,21.2,74,29.44,3.1,East,13.8,-,N/A,Snow,Light Snow,90,2013-02-11 05:25:00
6:55 AM,28.4,23.0,80,29.44,-9999.0,East,13.8,-,N/A,Snow,Light Snow,90,2013-02-11 05:55:00
6:57 AM,28.4,23.0,80,29.47,-9999.0,East,13.8,-,N/A,Snow,Light Snow,90,2013-02-11 05:57:00
7:00 AM,28.4,23.0,80,29.47,-9999.0,East,13.8,-,N/A,Snow,Light Snow,90,2013-02-11 06:00:00
7:04 AM,28.4,23.0,80,29.47,2.2,East,15.0,-,N/A,Snow,Light Snow,90,2013-02-11 06:04:00
7:25 AM,28.4,24.8,86,29.47,1.7,East,12.7,-,N/A,Snow,Light Snow,90,2013-02-11 06:25:00
7:30 AM,28.4,24.8,86,29.47,1.7,East,13.8,-,N/A,Snow,Light Snow,90,2013-02-11 06:30:00
7:55 AM,28.4,24.8,86,29.47,-9999.0,East,13.8,-,N/A,Snow,Light Snow,90,2013-02-11 06:55:00
8:25 AM,28.4,26.6,93,29.47,2.2,East,15.0,-,N/A,Snow,Light Snow,90,2013-02-11 07:25:00
8:26 AM,28.4,26.6,93,29.47,-9999.0,East,15.0,-,N/A,Snow,Light Snow,90,2013-02-11 07:26:00
8:39 AM,28.4,26.6,93,29.47,2.8,East,12.7,-,N/A,,Small Hail,90,2013-02-11 07:39:00
8:44 AM,28.4,26.6,93,29.47,-9999.0,East,12.7,-,N/A,Snow,Light Snow,90,2013-02-11 07:44:00
8:55 AM,28.4,26.6,93,29.47,3.1,East,12.7,-,N/A,Snow,Light Snow Grains,90,2013-02-11 07:55:00
8:56 AM,28.4,26.6,93,29.47,3.1,East,13.8,-,N/A,,Overcast,80,2013-02-11 07:56:00
9:06 AM,28.4,26.6,93,29.47,5.0,East,13.8,-,N/A,,Overcast,90,2013-02-11 08:06:00
9:25 AM,28.4,26.6,93,29.47,6.2,East,15.0,-,N/A,,Overcast,90,2013-02-11 08:25:00
9:51 AM,28.4,26.6,93,29.47,3.1,East,15.0,-,N/A,Snow,Light Snow,90,2013-02-11 08:51:00
9:55 AM,28.4,26.6,93,29.50,3.1,East,15.0,-,N/A,Snow,Light Snow,90,2013-02-11 08:55:00
10:25 AM,28.4,24.8,86,29.50,6.2,East,13.8,-,N/A,,Overcast,90,2013-02-11 09:25:00
10:38 AM,30.2,24.8,80,29.50,6.2,East,12.7,-,N/A,,Overcast,90,2013-02-11 09:38:00
10:55 AM,30.2,24.8,80,29.50,6.2,East,12.7,-,N/A,,Overcast,90,2013-02-11 09:55:00
11:25 AM,30.2,24.8,80,29.50,6.2,East,15.0,-,N/A,,Overcast,90,2013-02-11 10:25:00
11:55 AM,30.2,24.8,80,29.53,6.2,East,15.0,-,N/A,,Overcast,90,2013-02-11 10:55:00
12:25 PM,30.2,24.8,80,29.53,6.2,East,11.5,-,N/A,,Overcast,90,2013-02-11 11:25:00
12:55 PM,32.0,23.0,69,29.53,6.2,East,12.7,-,N/A,,Overcast,100,2013-02-11 11:55:00
1:25 PM,32.0,24.8,75,29.53,6.2,East,12.7,-,N/A,,Overcast,100,2013-02-11 12:25:00
1:55 PM,32.0,24.8,75,29.53,6.2,East,13.8,-,N/A,,Overcast,90,2013-02-11 12:55:00
2:25 PM,32.0,24.8,75,29.53,6.2,East,13.8,-,N/A,,Overcast,90,2013-02-11 13:25:00
2:55 PM,33.8,24.8,70,29.56,6.2,East,13.8,-,N/A,,Overcast,90,2013-02-11 13:55:00
3:25 PM,32.0,24.8,75,29.56,6.2,East,12.7,-,N/A,,Overcast,90,2013-02-11 14:25:00
3:30 PM,32.0,24.8,75,29.56,6.2,East,12.7,-,N/A,,Overcast,90,2013-02-11 14:30:00
3:55 PM,32.0,24.8,75,29.56,6.2,East,12.7,-,N/A,,Overcast,90,2013-02-11 14:55:00
4:25 PM,32.0,24.8,75,29.56,6.2,East,9.2,-,N/A,,Overcast,90,2013-02-11 15:25:00
4:55 PM,32.0,24.8,75,29.59,6.2,East,10.4,-,N/A,,Overcast,80,2013-02-11 15:55:00
5:25 PM,32.0,24.8,75,29.59,6.2,East,11.5,-,N/A,,Overcast,80,2013-02-11 16:25:00
5:55 PM,32.0,24.8,75,29.59,6.2,East,9.2,-,N/A,,Overcast,90,2013-02-11 16:55:00
6:25 PM,32.0,24.8,75,29.62,6.2,East,10.4,-,N/A,,Overcast,80,2013-02-11 17:25:00
6:55 PM,32.0,24.8,75,29.62,6.2,East,11.5,-,N/A,,Overcast,80,2013-02-11 17:55:00
7:14 PM,32.0,24.8,75,29.65,6.2,ENE,13.8,-,N/A,,Mostly Cloudy,70,2013-02-11 18:14:00
7:21 PM,32.0,24.8,75,29.65,6.2,ENE,13.8,-,N/A,,Mostly Cloudy,70,2013-02-11 18:21:00
7:25 PM,32.0,24.8,75,29.65,6.2,ENE,13.8,-,N/A,,Mostly Cloudy,70,2013-02-11 18:25:00
7:29 PM,32.0,24.8,75,29.65,6.2,ENE,13.8,-,N/A,,Overcast,70,2013-02-11 18:29:00
7:55 PM,32.0,24.8,75,29.65,6.2,East,10.4,-,N/A,,Mostly Cloudy,80,2013-02-11 18:55:00
8:25 PM,32.0,24.8,75,29.65,6.2,ENE,11.5,-,N/A,,Mostly Cloudy,70,2013-02-11 19:25:00
8:55 PM,32.0,23.0,69,29.65,6.2,ENE,12.7,-,N/A,,Mostly Cloudy,70,2013-02-11 19:55:00
9:25 PM,32.0,23.0,69,29.68,6.2,ENE,12.7,-,N/A,,Overcast,70,2013-02-11 20:25:00
9:55 PM,32.0,23.0,69,29.68,6.2,ENE,12.7,-,N/A,,Overcast,70,2013-02-11 20:55:00
10:25 PM,32.0,23.0,69,29.68,6.2,ENE,13.8,-,N/A,,Overcast,70,2013-02-11 21:25:00
10:55 PM,30.2,23.0,75,29.71,6.2,ENE,12.7,-,N/A,,Mostly Cloudy,70,2013-02-11 21:55:00
11:55 PM,28.4,21.2,74,29.71,6.2,ENE,12.7,-,N/A,,Overcast,70,2013-02-11 22:55:00